Weather History for Needles, CA

Change the Weather History Date:

Thursday, February 27, 2014

  Actual Average Record
Temperature  
Mean Temperature 70 °F -  
Max Temperature 82 °F 74 °F 91 °F (1986)
Min Temperature 59 °F 48 °F 29 °F (1964)
Cooling Degree Days 6    
Growing Degree Days 20 (Base 50)    
Moisture  
Dew Point 29 °F    
Average Humidity 26    
Maximum Humidity 48    
Minimum Humidity 9    
Precipitation  
Precipitation 0.00 in - - ()
Sea Level Pressure  
Sea Level Pressure 29.77 in    
Wind  
Wind Speed 6 mph (WSW)    
Max Wind Speed 18 mph    
Max Gust Speed 34 mph    
Visibility 10 miles    
Events      
Averages and records for this station are not official NWS values.
T = Trace of Precipitation, MM = Missing Value Source: NWS Daily Summary

Daily Weather History Graph

Daily Weather History Graph

Search for Another Location

Airport:

Trip Planner

Search our weather history database for the weather conditions in past years. The results will help you decide how hot, cold, wet, or windy it might be!

Date:

Astronomy

Feb. 27, 2014 Rise Set
Actual Time 6:10 AM PST 5:32 PM PST
Civil Twilight 5:44 AM PST 5:58 PM PST
Nautical Twilight 5:15 AM PST 6:27 PM PST
Astronomical Twilight 4:46 AM PST 6:56 PM PST
Moon 4:42 AM PST (2/27) 4:05 PM PST (2/27)
Length of Visible Light 12h 13m
Length of Day
11h 22m
Waning Crescent, 3% of the Moon is Illuminated
Feb 27
Waning Crescent
Mar 1
New
Mar 8
First Quarter
Mar 16
Full
Mar 23
Last Quarter

Hourly Weather History & Observations

Time (PST) Temp. Dew Point Humidity Pressure Visibility Wind Dir Wind Speed Gust Speed Precip Events Conditions
12:56 AM 64.0 °F 35.1 °F 34% 29.83 in 10.0 mi SSE 4.6 mph - N/A   Partly Cloudy
1:56 AM 64.0 °F 36.0 °F 35% 29.82 in 10.0 mi WSW 4.6 mph - N/A   Clear
2:56 AM 62.1 °F 36.0 °F 38% 29.81 in 10.0 mi East 3.5 mph - N/A   Clear
3:56 AM 59.0 °F 37.9 °F 46% 29.80 in 10.0 mi Calm Calm - N/A   Clear
4:56 AM 60.1 °F 39.0 °F 46% 29.80 in 10.0 mi Calm Calm - N/A   Clear
5:56 AM 60.1 °F 39.0 °F 46% 29.81 in 10.0 mi Calm Calm - N/A   Clear
6:56 AM 61.0 °F 41.0 °F 48% 29.81 in 10.0 mi SSW 5.8 mph - N/A   Clear
7:56 AM 64.9 °F 41.0 °F 42% 29.84 in 10.0 mi NNE 5.8 mph - N/A   Clear
8:56 AM 68.0 °F 41.0 °F 37% 29.82 in 10.0 mi SE 6.9 mph - N/A   Clear
9:56 AM 72.0 °F 42.1 °F 34% 29.82 in 10.0 mi SSW 15.0 mph - N/A   Clear
10:56 AM 77.0 °F 43.0 °F 30% 29.80 in 10.0 mi SW 10.4 mph 19.6 mph N/A   Scattered Clouds
11:56 AM 80.1 °F 37.0 °F 21% 29.77 in 10.0 mi WSW 18.4 mph 34.5 mph N/A   Clear
12:56 PM 78.1 °F 35.1 °F 21% 29.76 in 10.0 mi WNW 6.9 mph 24.2 mph N/A   Scattered Clouds
1:56 PM 80.1 °F 34.0 °F 19% 29.71 in 10.0 mi Variable 5.8 mph - N/A   Clear
2:56 PM 82.0 °F 21.9 °F 11% 29.70 in 10.0 mi West 17.3 mph - N/A   Clear
3:56 PM 81.0 °F 18.0 °F 10% 29.70 in 10.0 mi West 8.1 mph - N/A   Clear
4:56 PM 79.0 °F 15.1 °F 9% 29.71 in 10.0 mi WNW 12.7 mph - N/A   Clear
5:56 PM 73.0 °F 14.0 °F 11% 29.70 in 10.0 mi WNW 10.4 mph - N/A   Clear
6:56 PM 71.1 °F 12.9 °F 11% 29.71 in 10.0 mi SSW 3.5 mph - N/A   Clear
7:56 PM 68.0 °F 15.1 °F 13% 29.72 in 10.0 mi West 3.5 mph - N/A   Clear
8:56 PM 63.0 °F 16.0 °F 16% 29.73 in 10.0 mi South 5.8 mph - N/A   Clear
9:56 PM 64.0 °F 15.1 °F 15% 29.73 in 10.0 mi SW 3.5 mph - N/A   Clear
10:56 PM 66.0 °F 16.0 °F 15% 29.73 in 10.0 mi WNW 3.5 mph - N/A   Clear
11:56 PM 64.0 °F 18.0 °F 17% 29.74 in 10.0 mi WSW 5.8 mph - N/A   Clear